Flag for Mexico Weather past 2 weeks in Guadalajara, Jalisco, Mexico

Now
81 °F

Scattered clouds.


Feels Like: 79 °F
Forecast: 46 / 82 °F
Wind: 8 mph from West

Location: Don Miguel / Guadalaj

Current Time: Jan 28, 2015 at 6:39:43 PM

Latest Report: Jan 28, 2015 at 5:50 PM


Visibility: 10 mi

Pressure: 29.85 "Hg

Humidity: 18%

Dew point: 34 °F

Location of GuadalajaraLocation

Historic Weather in Guadalajara — Graph

°F

Guadalajara temperature yesterday

Maximum temperature yesterday: 82 °F (at 2:54 PM)
Minimum temperature yesterday: 48 °F (at 7:45 AM)
Average temperature yesterday: 64 °F

Past Weeks' High & Low Weather Summary

 TemperatureHumidityPressure
High82 °F (Jan 27, 2:54 PM)93% (Jan 23, 6:51 AM)30.35 "Hg (Jan 23, 6:51 AM)
Low41 °F (Jan 15, 7:54 AM)14% (Jan 20, 4:53 PM)29.74 "Hg (Jan 21, 2:49 PM)
Average62 °F52%30.12 "Hg
* Reported Jan 13 4:50 PM — Jan 28 4:48 PM, Guadalajara, Weather by CustomWeather, © 2014

Note: Actual official high and low records may vary slightly from our data, if they occured in-between our weather recording intervals... More about our weather records

Advertising

Guadalajara weather history for previous 24 hours

 ConditionsComfort  
Time TempWeatherWind HumidityBarometerVisibility
4:48 PM
Jan 28
81 °FPartly sunny.5 mph18%30.11 "Hg10 mi
3:51 PM81 °FPartly sunny.6 mph18%30.13 "Hg10 mi
2:50 PM79 °FPartly sunny.3 mph20%29.87 "Hg8 mi
1:49 PM79 °FPartly sunny.No wind21%30.19 "Hg8 mi
12:52 PM77 °FPartly sunny.7 mph21%30.22 "Hg8 mi
11:54 AM73 °FScattered clouds.5 mph22%29.97 "Hg7 mi
10:53 AM70 °FScattered clouds.No wind27%30.29 "Hg7 mi
9:51 AM64 °FPassing clouds.3 mph40%30.29 "Hg7 mi
8:47 AM59 °FPassing clouds.No wind55%30.06 "Hg7 mi
7:49 AM45 °FPassing clouds.No wind87%30.27 "Hg7 mi
6:52 AM45 °FClear.No wind81%30.26 "Hg10 mi
5:52 AM48 °FClear.No wind76%29.97 "Hg10 mi
4:54 AM48 °FClear.No wind76%30.22 "Hg10 mi
4:23 AM50 °FPassing clouds.No wind71%30.22 "Hg10 mi
2:56 AM52 °FPassing clouds.9 mph67%29.94 "Hg10 mi
1:58 AM54 °FClear.3 mph63%30.23 "Hg10 mi
12:50 AM54 °FClear.No wind63%30.22 "Hg10 mi
11:50 PM
Jan 27
55 °FClear.No wind55%29.93 "Hg10 mi
10:50 PM59 °FClear.No wind51%30.21 "Hg10 mi
9:46 PM57 °FClear.2 mph55%30.21 "Hg10 mi
8:48 PM63 °FClear.No wind45%29.99 "Hg10 mi
7:51 PM68 °FClear.No wind33%30.18 "Hg10 mi
6:51 PM75 °FClear.No wind25%30.16 "Hg8 mi
Weather by CustomWeather, © 2014

See weather overviewHow to use our weather pages